Regional Weather Roundup
Issued by NWS

Home | Current Version | Previous Version | Graphics & Text | Print | Product List | Glossary Off
Versions: 1 2 3 4 5 6 7 8 9 10 11 12 13 14 15 16 17 18 19 20 21 22 23 24 25 26 27 28 29 30 31 32 33 34 35 36 37 38 39 40 41 42 43 44 45 46 47 48 49 50

000
ASUS45 KCYS 211910
RWRWY

WYOMING REGIONAL WEATHER ROUNDUP
NATIONAL WEATHER SERVICE CHEYENNE WY
1200 PM MST TUE NOV 21 2017

NOTE:  "FAIR" INDICATES FEW OR NO CLOUDS BELOW 12,000 FEET
WITH NO SIGNIFICANT WEATHER AND/OR OBSTRUCTIONS TO VISIBILITY.

WYZ001-212000-
YELLOWSTONE NATIONAL PARK

CITY           SKY/WX    TMP DP  RH WIND       PRES   REMARKS
LK YELLOWSTONE   N/A     34  29  82 MISG      30.33S
W YELLOWSTONE  NOT AVBL

$$
WYZ002>013-054>058-071-098>099-212000-
NORTHERN WYOMING

CITY           SKY/WX    TMP DP  RH WIND       PRES   REMARKS
JACKSON        FAIR      39  33  79 N8        30.32S WCI  33
CODY           FAIR      45  31  58 SE8       30.22F
GREYBULL       FAIR      38  31  76 SE6       30.27F WCI  33
WORLAND        FAIR      40  30  67 SE3       30.27F
SHERIDAN       FAIR      34  30  85 VRB3      30.24F
BUFFALO        FAIR      36  27  69 SE15      30.23F WCI  27
GILLETTE       FAIR      35  24  64 W10       30.26F WCI  27
HULETT         MOCLDY    32  23  69 W7        30.29F WCI  26
NEWCASTLE      MOCLDY    32  21  64 NW10      30.30F WCI  24

$$
WYZ014>020-022>026-101>103-212000-
CENTRAL WYOMING

CITY           SKY/WX    TMP DP  RH WIND       PRES   REMARKS
BIG PINEY      FAIR      42  35  76 CALM      30.33S
PINEDALE       CLOUDY    37  34  87 W3        30.32F
DUBOIS         FAIR      41  30  65 N16       30.25F
LANDER         FAIR      45  32  60 CALM      30.24F
RIVERTON       FAIR      45  33  63 SE5       30.25F
CASPER         CLOUDY    40  31  70 S9        30.27F WCI  34
DOUGLAS        FAIR      39  27  62 VRB3      30.28F

$$
WYZ021-027>030-104>119-212000-
SOUTHERN WYOMING

CITY           SKY/WX    TMP DP  RH WIND       PRES   REMARKS
EVANSTON       PTSUNNY   44  38  79 S8        30.38F
KEMMERER       CLOUDY    39  34  81 SW7       30.36F WCI  34
FORT BRIDGER   CLOUDY    45  38  78 W14       30.39S
ROCK SPRINGS   FAIR      46  35  65 W24G31    30.31F
DIXON          CLOUDY    45  35  67 CALM      30.35F
RAWLINS        FAIR      44  34  67 SW10      30.29F
SARATOGA       FAIR      41  34  75 W10G20    30.32S
LARAMIE        CLOUDY    39  33  79 CALM      30.27F
CHEYENNE       FAIR      42  32  67 N5        30.28F
TORRINGTON     FAIR      44  26  49 W8        30.30F
PINE BLUFFS    FAIR      41  28  60 MISG      30.31F

$$



USA.gov is the U.S. government's official web portal to all federal, state and local government web resources and services.